CAPE
0 0 0 0 0 0 0 0 0 0 0 0 0 0 0 0 0 0 0 0 0 0 0 0 0 0 0 0 0 0 0 0 0 0 0 0 0 0 0 0 0 0 382 974 1220
0 0 0 0 0 0 0 0 0 0 0 0 0 0 0 0 0 0 0 0 0 0 0 0 0 0 0 0 0 0 0 0 0 0 0 0 0 0 0 0 0 0 397 652 1238
0 0 0 0 0 0 0 0 0 0 0 0 0 0 0 0 0 0 0 0 0 0 0 0 0 0 0 0 0 0 0 0 0 0 0 0 0 0 0 0 0 0 0 189 948
0 0 0 0 0 0 0 0 0 0 0 0 0 0 0 0 0 0 0 0 0 0 0 0 0 0 0 0 0 0 0 0 0 0 0 0 0 0 0 0 0 0 0 0 0
0 0 0 0 0 0 0 0 0 0 0 0 0 0 0 0 0 0 0 0 0 0 0 0 0 0 0 0 0 0 0 0 0 0 0 0 0 0 0 0 0 0 0 0 0
0 0 0 0 0 0 0 0 0 0 0 0 0 0 0 0 0 0 0 0 0 0 0 0 0 0 0 0 0 0 0 0 0 0 0 0 0 0 0 0 0 0 0 0 0
0 0 0 0 0 0 0 0 0 0 0 0 0 0 0 0 0 0 0 0 0 0 0 0 0 0 0 0 0 0 0 0 0 0 0 0 0 0 0 0 0 0 0 0 0
0 0 0 0 0 0 0 0 0 0 0 0 0 0 0 0 0 0 0 0 0 0 0 0 0 0 0 0 0 0 0 0 0 0 0 0 0 0 0 0 0 0 0 0 0
0 0 0 0 0 0 0 0 0 0 0 0 0 0 0 0 0 0 0 0 0 0 0 0 0 0 0 0 0 0 0 0 0 0 0 0 0 0 0 0 0 0 0 0 0
0 0 0 0 0 0 0 0 0 0 0 0 0 0 0 0 0 0 0 0 0 0 0 0 0 0 0 0 0 0 0 0 0 0 0 0 0 0 0 0 0 0 0 0 0
0 0 0 0 0 0 0 0 0 0 0 0 0 0 0 0 0 0 0 0 0 0 0 0 0 0 0 0 0 0 0 0 0 0 0 0 0 0 0 0 0 0 0 0 0
0 0 0 0 0 0 0 0 0 0 0 0 0 0 0 0 0 0 0 0 0 0 0 0 0 0 0 0 0 0 0 0 0 0 0 0 0 0 0 0 0 0 0 0 0
0 0 0 0 0 0 0 0 0 0 0 0 0 0 0 0 0 0 0 0 0 0 0 0 0 0 0 0 0 0 0 0 0 0 0 0 0 0 0 0 0 0 0 0 0
0 0 0 0 0 0 0 0 0 0 0 0 0 0 0 0 0 0 0 0 0 0 0 0 0 0 0 0 0 0 0 0 0 0 0 0 0 0 0 0 0 0 0 0 0
0 0 0 0 0 0 0 0 0 0 0 0 0 0 0 0 0 0 0 0 0 0 0 0 0 0 0 0 0 0 0 0 0 0 0 0 0 0 0 0 0 0 0 0 0
0 0 0 0 0 0 0 0 0 0 0 0 0 0 0 0 0 0 0 0 0 0 0 0 0 0 0 0 0 0 0 0 0 0 0 0 0 0 0 0 0 0 0 0 0
0 0 0 0 0 0 0 0 0 0 0 0 0 0 0 0 0 0 0 0 0 0 0 0 0 0 0 0 0 0 0 0 0 0 7 0 0 0 0 0 1 0 0 0 0
0 0 0 0 0 0 0 0 0 0 0 0 0 0 0 0 0 0 0 0 0 0 0 0 0 0 0 0 0 0 0 0 0 0 0 0 0 1 0 0 0 0 0 0 0
0 0 0 0 0 0 0 0 0 0 0 0 0 0 0 0 0 0 0 0 0 0 0 0 0 0 0 0 0 0 0 0 0 1 0 0 0 0 0 0 0 0 0 0 0
0 0 0 0 0 0 0 0 0 0 0 0 0 0 0 0 0 0 0 0 0 0 0 0 0 0 0 0 0 0 0 0 0 0 0 0 0 0 0 0 0 0 0 0 0
0 0 0 0 0 0 0 0 0 0 0 0 0 0 0 0 0 0 0 0 0 0 0 0 0 0 0 0 0 0 0 0 0 0 0 0 0 1 0 0 1 0 0 0 0
0 0 0 0 0 0 0 0 0 0 0 0 0 0 0 0 0 0 0 0 0 0 0 0 0 0 0 0 0 0 0 0 0 0 0 0 0 0 0 0 0 0 0 0 0
0 0 0 0 0 0 0 0 0 0 0 0 0 0 0 0 0 0 0 0 0 0 0 0 0 0 0 0 0 0 0 0 0 0 0 0 0 0 0 0 0 0 0 0 0
0 0 0 0 0 0 0 0 0 0 0 0 0 0 0 0 0 0 0 0 0 0 0 0 0 0 0 0 0 0 0 0 0 0 0 0 0 0 0 0 0 0 0 0 0
0 0 0 0 0 0 0 0 0 0 0 0 0 0 0 0 0 0 0 0 0 0 0 0 0 0 0 0 0 0 0 0 0 0 0 0 0 0 0 0 0 0 0 0 0
0 0 0 0 0 0 0 0 0 0 0 0 0 0 0 0 0 0 0 0 0 0 0 0 0 0 0 0 0 0 0 0 0 0 0 0 0 0 0 0 0 0 0 0 0
0 0 0 0 0 0 0 0 0 0 0 0 0 0 0 0 0 0 0 0 0 0 0 0 0 0 0 5 0 0 0 0 0 0 0 0 0 0 0 0 0 0 0 0 0
CIN
-0 -0 -0 -0 -0 -0 -0 -0 -0 -0 -0 -0 -0 -0 -0 -0 -0 -0 -0 -0 -0 -0 -0 -0 -0 -0 -0 -0 -0 -0 -0 -0 -0 -0 -0 -0 -0 -0 -0 -0 -0 -0 -21 -68 -140
-0 -0 -0 -0 -0 -0 -0 -0 -0 -0 -0 -0 -0 -0 -0 -0 -0 -0 -0 -0 -0 -0 -0 -0 -0 -0 -0 -0 -0 -0 -0 -0 -0 -0 -0 -0 -0 -0 -0 -0 -0 -0 -11 -35 -66
-0 -0 -0 -0 -0 -0 -0 -0 -0 -0 -0 -0 -0 -0 -0 -0 -0 -0 -0 -0 -0 -0 -0 -0 -0 -0 -0 -0 -0 -0 -0 -0 -0 -0 -0 -0 -0 -0 -0 -0 -0 -0 -0 -13 -30
-0 -0 -0 -0 -0 -0 -0 -0 -0 -0 -0 -0 -0 -0 -0 -0 -0 -0 -0 -0 -0 -0 -0 -0 -0 -0 -0 -0 -0 -0 -0 -0 -0 -0 -0 -0 -0 -0 -0 -0 -0 -0 -0 -0 -0
-0 -0 -0 -0 -0 -0 -0 -0 -0 -0 -0 -0 -0 -0 -0 -0 -0 -0 -0 -0 -0 -0 -0 -0 -0 -0 -0 -0 -0 -0 -0 -0 -0 -0 -0 -0 -0 -0 -0 -0 -0 -0 -0 -0 -0
-0 -0 -0 -0 -0 -0 -0 -0 -0 -0 -0 -0 -0 -0 -0 -0 -0 -0 -0 -0 -0 -0 -0 -0 -0 -0 -0 -0 -0 -0 -0 -0 -0 -0 -0 -0 -0 -0 -0 -0 -0 -0 -0 -0 -0
-0 -0 -0 -0 -0 -0 -0 -0 -0 -0 -0 -0 -0 -0 -0 -0 -0 -0 -0 -0 -0 -0 -0 -0 -0 -0 -0 -0 -0 -0 -0 -0 -0 -0 -0 -0 -0 -0 -0 -0 -0 -0 -0 -0 -0
-0 -0 -0 -0 -0 -0 -0 -0 -0 -0 -0 -0 -0 -0 -0 -0 -0 -0 -0 -0 -0 -0 -0 -0 -0 -0 -0 -0 -0 -0 -0 -0 -0 -0 -0 -0 -0 -0 -0 -0 -0 -0 -0 -0 -0
-0 -0 -0 -0 -0 -0 -0 -0 -0 -0 -0 -0 -0 -0 -0 -0 -0 -0 -0 -0 -0 -0 -0 -0 -0 -0 -0 -0 -0 -0 -0 -0 -0 -0 -0 -0 -0 -0 -0 -0 -0 -0 -0 -0 -0
-0 -0 -0 -0 -0 -0 -0 -0 -0 -0 -0 -0 -0 -0 -0 -0 -0 -0 -0 -0 -0 -0 -0 -0 -0 -0 -0 -0 -0 -0 -0 -0 -0 -0 -0 -0 -0 -0 -0 -0 -0 -0 -0 -0 -0
-0 -0 -0 -0 -0 -0 -0 -0 -0 -0 -0 -0 -0 -0 -0 -0 -0 -0 -0 -0 -0 -0 -0 -0 -0 -0 -0 -0 -0 -0 -0 -0 -0 -0 -0 -0 -0 -0 -0 -0 -0 -0 -0 -0 -0
-0 -0 -0 -0 -0 -0 -0 -0 -0 -0 -0 -0 -0 -0 -0 -0 -0 -0 -0 -0 -0 -0 -0 -0 -0 -0 -0 -0 -0 -0 -0 -0 -0 -0 -0 -0 -0 -0 -0 -0 -0 -0 -0 -0 -0
-0 -0 -0 -0 -0 -0 -0 -0 -0 -0 -0 -0 -0 -0 -0 -0 -0 -0 -0 -0 -0 -0 -0 -0 -0 -0 -0 -0 -0 -0 -0 -0 -0 -0 -0 -0 -0 -0 -0 -0 -0 -0 -0 -0 -0
-0 -0 -0 -0 -0 -0 -0 -0 -0 -0 -0 -0 -0 -0 -0 -0 -0 -0 -0 -0 -0 -0 -0 -0 -0 -0 -0 -0 -0 -0 -0 -0 -0 -0 -0 -0 -0 -0 -0 -0 -0 -0 -0 -0 -0
-0 -0 -0 -0 -0 -0 -0 -0 -0 -0 -0 -0 -0 -0 -0 -0 -0 -0 -0 -0 -0 -0 -0 -0 -0 -0 -0 -0 -0 -0 -0 -0 -0 -0 -0 -0 -0 -0 -0 -0 -0 -0 -0 -0 -0
-0 -0 -0 -0 -0 -0 -0 -0 -0 -0 -0 -0 -0 -0 -0 -0 -0 -0 -0 -0 -0 -0 -0 -0 -0 -0 -0 -0 -0 -0 -0 -0 -0 -0 -0 -0 -0 -0 -0 -0 -0 -0 -0 -0 -0
-0 -0 -0 -0 -0 -0 -0 -0 -0 -0 -0 -0 -0 -0 -0 -0 -0 -0 -0 -0 -0 -0 -0 -0 -0 -0 -0 -0 -0 -0 -0 -0 -2 -0 -7 -0 -0 -0 -0 -0 -0 -0 -0 -0 -0
-0 -0 -0 -0 -0 -0 -0 -0 -0 -0 -0 -0 -0 -0 -0 -0 -0 -0 -0 -0 -0 -0 -0 -0 -0 -0 -0 -0 -0 -0 -0 -0 -0 -0 -0 -0 -0 -2 -0 -0 -0 -0 -0 -0 -0
-0 -0 -0 -0 -0 -0 -0 -0 -0 -0 -0 -0 -0 -0 -0 -0 -0 -0 -0 -0 -0 -0 -0 -0 -0 -0 -0 -0 -0 -0 -0 -0 -0 -3 -0 -0 -0 -0 -0 -0 -0 -0 -0 -0 -0
-0 -0 -0 -0 -0 -0 -0 -0 -0 -0 -0 -0 -0 -0 -0 -0 -0 -0 -0 -0 -0 -0 -0 -0 -0 -0 -0 -0 -0 -0 -0 -0 -0 -0 -0 -0 -0 -0 -0 -0 -0 -0 -0 -0 -0
-0 -0 -0 -0 -0 -0 -0 -0 -0 -0 -0 -0 -0 -0 -0 -0 -0 -0 -0 -0 -0 -0 -0 -0 -0 -0 -0 -0 -0 -0 -0 -0 -0 -0 -0 -0 -0 -0 -0 -0 -3 -0 -0 -0 -0
-0 -0 -0 -0 -0 -0 -0 -0 -0 -0 -0 -0 -0 -0 -0 -0 -0 -0 -0 -0 -0 -0 -0 -0 -0 -0 -0 -0 -0 -0 -0 -0 -0 -0 -0 -0 -0 -0 -0 -0 -0 -0 -0 -0 -0
-0 -0 -0 -0 -0 -0 -0 -0 -0 -0 -0 -0 -0 -0 -0 -0 -0 -0 -0 -0 -0 -0 -0 -0 -0 -0 -0 -0 -0 -0 -0 -0 -0 -0 -0 -0 -0 -0 -0 -0 -0 -0 -0 -0 -0
-0 -0 -0 -0 -0 -0 -0 -0 -0 -0 -0 -0 -0 -0 -0 -0 -0 -0 -0 -0 -0 -0 -0 -0 -0 -0 -0 -0 -0 -0 -0 -0 -0 -0 -0 -0 -0 -0 -0 -0 -0 -0 -0 -0 -0
-0 -0 -0 -0 -0 -0 -0 -0 -0 -0 -0 -0 -0 -0 -0 -0 -0 -0 -0 -0 -0 -0 -0 -0 -0 -0 -0 -0 -0 -0 -0 -0 -0 -0 -0 -0 -0 -0 -0 -0 -0 -0 -0 -0 -0
-0 -0 -0 -0 -0 -0 -0 -0 -0 -0 -0 -0 -0 -0 -0 -0 -0 -0 -0 -0 -0 -0 -0 -0 -0 -0 -0 -0 -0 -0 -0 -0 -0 -0 -0 -0 -0 -0 -0 -0 -0 -0 -0 -0 -0
-0 -0 -0 -0 -0 -0 -0 -0 -0 -0 -0 -0 -0 -0 -0 -0 -0 -0 -0 -0 -0 -0 -0 -0 -0 -0 -0 -24 -0 -0 -0 -0 -0 -0 -0 -0 -0 -0 -0 -0 -0 -0 -0 -0 -0
Wind_Speed
15 16 17 18 18 18 17 17 17 16 15 15 16 19 22 23 22 29 26 29 30 29 27 27 21 25 17 17 16 16 23 27 27 26 26 31 31 31 28 26 21 25 21 12 9
16 17 17 17 17 17 17 17 16 15 15 16 19 21 24 24 18 28 29 31 30 30 28 27 25 24 19 19 18 17 22 25 22 27 34 34 30 27 26 27 23 26 22 16 10
15 14 13 13 13 12 12 14 16 17 17 17 20 22 24 19 17 28 31 33 32 30 24 22 22 22 20 19 19 20 23 25 28 27 27 27 26 26 26 26 28 29 28 23 16
16 15 13 13 12 11 11 12 13 15 15 17 21 22 21 22 20 27 33 34 33 29 24 23 23 22 21 21 21 24 22 23 26 29 26 26 24 17 23 26 27 24 21 21 22
16 15 13 11 10 10 10 10 11 14 17 19 20 22 20 23 27 32 33 35 28 26 24 24 23 24 24 24 28 22 24 27 29 27 25 25 25 16 26 27 25 22 23 24 24
14 12 11 9 9 9 10 10 12 17 20 21 23 23 24 24 30 34 37 33 30 25 24 22 23 23 22 23 24 26 31 31 25 29 25 31 25 22 31 26 27 27 24 24 26
11 10 10 9 8 9 10 10 13 19 22 22 24 19 26 28 31 36 36 33 28 23 21 20 20 22 25 27 24 30 31 26 28 32 28 30 25 28 28 27 27 29 30 27 28
9 9 9 8 8 9 9 9 19 22 22 22 21 20 20 27 33 36 36 34 31 26 19 20 18 21 26 26 26 28 26 29 29 32 30 32 30 30 30 28 29 29 30 31 31
7 8 9 11 12 12 20 22 22 23 22 23 22 19 24 30 36 36 35 36 29 27 30 22 20 24 32 33 31 30 36 36 32 30 34 31 30 32 30 29 31 31 31 33 34
10 12 13 15 19 21 21 21 23 21 19 20 27 20 29 31 34 36 38 34 30 30 23 29 26 30 37 37 38 40 39 36 36 36 37 27 29 31 30 29 30 32 33 34 35
12 15 19 23 23 21 20 17 20 23 26 26 24 25 23 26 34 38 35 31 33 31 26 29 34 36 34 35 35 37 39 40 40 35 42 28 30 31 31 31 33 34 35 36 36
16 20 22 24 25 22 21 19 18 16 21 20 25 29 27 24 33 41 39 33 38 37 29 27 36 32 32 38 39 39 42 43 40 44 43 31 32 30 30 30 32 35 37 38 38
21 24 25 22 20 24 24 20 18 17 18 21 21 31 32 27 33 43 41 32 34 37 35 33 34 34 38 45 49 44 44 46 50 51 45 34 37 35 32 31 33 34 35 36 37
22 26 27 19 20 20 20 19 17 16 19 24 27 28 37 23 29 41 38 32 32 37 31 31 36 39 45 44 47 55 46 54 54 48 46 33 43 36 36 34 34 35 35 36 37
22 28 27 27 19 20 18 17 16 17 20 23 26 24 32 31 27 39 39 32 34 35 36 38 39 44 48 50 51 53 50 51 45 43 41 41 35 37 31 34 35 35 35 36 36
25 28 27 21 22 20 17 17 18 19 20 20 23 28 32 32 32 30 38 33 28 29 37 32 30 40 46 49 44 40 42 45 32 29 35 28 28 29 30 32 32 33 34 35 37
21 23 24 20 20 17 17 17 18 23 19 22 23 25 28 34 32 32 41 49 43 44 50 37 35 42 44 47 40 41 41 30 27 18 20 12 12 17 23 26 29 32 33 33 34
17 21 24 23 15 17 18 18 22 19 20 20 21 25 28 33 28 34 33 36 42 38 39 47 49 49 41 35 30 30 27 24 26 23 14 14 13 17 23 25 27 28 29 31 33
17 18 27 29 20 18 19 23 20 19 18 20 20 24 26 30 27 31 34 33 37 40 42 43 40 35 36 29 30 31 33 13 15 20 16 14 11 16 25 26 27 28 30 31 33
17 17 26 15 20 20 22 22 19 19 19 20 24 25 27 28 31 30 32 30 31 33 30 34 38 32 30 26 27 25 15 31 28 22 16 15 16 24 28 28 28 29 30 31 32
18 17 15 8 21 24 23 22 21 21 19 21 22 23 25 27 27 28 30 27 28 32 29 31 31 33 26 32 33 31 29 27 21 25 18 15 17 24 28 29 29 30 31 31 31
19 19 7 19 21 22 23 20 19 20 20 21 21 23 23 24 26 26 28 27 27 29 34 30 30 34 25 23 28 31 28 26 23 24 21 16 18 23 25 28 28 30 31 31 31
20 19 13 20 23 25 24 24 22 20 21 19 21 22 23 24 26 24 24 21 25 31 33 29 33 37 29 19 22 25 32 28 23 20 24 19 21 26 27 28 29 30 31 33 32
19 19 20 28 25 26 24 22 20 19 22 22 21 21 25 24 24 24 25 22 22 24 28 27 30 30 29 21 18 20 28 31 26 22 20 23 29 31 31 32 32 32 31 32 33
20 20 18 20 23 24 22 19 20 18 19 22 21 25 25 25 26 25 25 24 21 22 27 28 33 27 22 17 18 18 21 27 29 25 25 28 30 32 34 34 34 33 33 33 33
19 19 21 21 20 22 20 19 19 18 19 20 23 22 24 24 23 25 24 25 23 23 28 28 31 27 23 16 15 16 17 19 21 25 25 27 30 31 34 34 35 34 34 34 34
20 20 19 17 18 18 17 18 17 17 18 19 21 23 24 23 19 16 15 16 17 22 25 26 29 32 31 18 17 17 14 14 15 19 23 28 30 34 34 35 35 35 35 35 34
Wind_Direction
313 315 317 320 321 323 327 329 331 326 323 319 309 316 322 321 351 355 351 338 325 315 343 333 345 330 346 339 331 326 306 300 299 300 298 296 299 297 293 293 316 326 330 335 326
314 315 317 318 320 324 329 333 334 322 314 323 332 330 329 335 15 354 349 331 324 331 337 333 331 332 336 330 330 326 311 307 309 304 292 292 297 301 299 297 309 319 326 326 323
309 306 301 302 300 297 298 315 325 329 338 340 334 321 318 13 15 346 333 325 324 331 353 349 345 342 337 334 330 324 312 313 311 308 307 303 302 302 301 296 304 311 309 305 303
310 305 297 293 291 287 283 289 306 319 326 328 327 315 350 15 2 354 320 315 322 339 352 350 345 341 337 330 329 318 321 321 314 311 312 305 306 315 313 305 307 325 332 335 333
307 301 294 280 270 267 266 269 284 314 326 329 325 341 16 4 357 334 311 316 350 352 352 348 344 338 332 327 319 319 319 316 312 311 313 310 309 309 313 310 315 324 328 330 327
299 292 280 268 252 245 244 251 275 316 341 345 338 5 14 357 349 345 328 340 350 357 351 354 347 343 335 330 325 318 312 311 316 311 310 304 310 301 307 311 314 309 316 320 324
293 285 275 259 243 239 241 245 277 325 349 5 348 23 10 357 355 343 344 344 357 357 358 1 358 349 338 328 329 317 313 316 315 309 307 306 304 306 312 314 311 309 308 310 317
286 282 262 247 237 226 221 224 44 11 1 13 13 26 20 13 356 349 348 348 354 7 7 1 8 357 347 335 330 324 321 311 314 315 308 305 291 308 315 313 308 308 309 308 307
277 275 270 278 276 286 345 12 8 349 20 22 22 28 14 359 352 348 357 353 2 358 7 9 8 0 345 334 326 326 311 309 309 317 309 309 294 306 315 314 306 307 306 307 307
288 291 292 299 315 350 17 21 16 20 19 22 25 24 7 5 6 359 359 6 11 360 1 2 360 349 345 339 321 316 312 310 305 308 307 306 299 304 311 311 308 307 307 307 306
292 302 315 340 356 10 19 30 20 21 19 30 32 26 20 20 13 3 12 15 12 12 4 6 355 348 348 345 336 325 316 308 305 307 303 300 299 300 308 308 306 306 307 306 306
308 318 335 359 14 25 28 28 33 40 29 38 35 15 18 28 2 356 7 12 7 5 11 3 356 357 352 344 336 329 318 309 305 303 299 293 293 302 310 311 310 307 306 307 303
322 334 349 22 37 24 29 33 42 49 34 35 33 14 7 21 9 355 6 14 11 7 7 5 358 356 349 341 332 326 317 309 302 299 294 287 283 294 304 310 311 312 309 310 307
330 342 352 41 38 36 31 34 46 59 31 18 13 10 357 22 12 11 14 17 13 6 8 2 359 353 347 343 336 320 317 307 300 294 284 286 280 290 300 303 311 310 310 307 306
330 355 20 28 42 36 42 49 60 51 28 19 19 28 14 23 21 10 16 20 15 13 10 357 356 353 348 342 337 326 323 312 299 287 282 274 277 288 298 297 305 312 312 309 308
355 23 29 40 40 45 50 60 55 41 32 30 27 15 12 20 20 23 21 25 26 13 7 6 9 2 354 347 343 340 335 321 311 295 278 274 270 293 293 299 305 311 314 312 309
40 37 37 46 39 47 57 56 48 38 42 31 24 23 22 15 19 18 14 12 12 3 1 6 7 3 1 357 1 354 353 354 349 340 302 304 290 305 315 317 314 311 316 315 317
43 40 38 37 54 59 59 58 44 51 44 36 32 26 24 19 22 19 16 16 19 15 5 2 359 3 4 10 11 12 13 7 351 341 328 327 289 311 337 332 328 326 322 323 323
45 45 26 350 49 63 65 51 57 58 50 37 37 32 27 22 23 20 19 19 18 17 10 5 5 10 15 22 26 22 22 277 16 332 349 329 312 317 336 339 337 332 332 330 327
49 53 30 297 59 61 62 68 69 61 53 48 38 34 25 23 22 21 20 22 18 18 20 11 6 14 19 30 34 37 355 19 1 1 349 326 316 312 318 325 327 328 329 329 330
53 63 60 272 57 54 68 76 74 60 61 52 43 37 31 26 23 22 21 23 22 17 20 17 15 12 27 30 26 25 21 12 356 355 360 345 332 323 323 319 319 323 324 322 321
61 65 90 56 71 76 79 83 80 67 64 56 50 43 35 29 26 26 21 23 23 20 17 19 19 14 24 40 36 31 25 12 12 0 349 349 338 320 322 327 323 321 320 324 321
72 81 89 78 69 76 81 75 75 70 60 58 49 43 35 30 26 26 25 28 26 24 21 20 20 16 22 31 32 36 17 11 5 344 349 348 327 315 317 316 320 321 322 327 324
77 73 82 65 84 77 77 73 74 73 61 55 47 41 31 30 30 23 22 27 23 28 26 30 24 23 19 27 36 43 31 11 14 10 355 338 314 307 310 314 314 317 317 320 325
79 81 93 79 74 74 78 77 69 64 58 48 45 36 31 28 23 27 24 23 30 31 27 26 20 26 30 39 42 46 42 26 17 19 2 333 320 311 309 310 310 310 313 316 320
84 90 85 86 84 70 75 72 65 62 54 47 39 35 33 28 26 20 23 26 27 30 24 25 21 25 23 43 42 38 38 39 31 18 11 359 338 321 315 312 311 308 309 312 315
86 87 84 87 79 74 75 70 64 61 52 47 39 32 29 27 24 18 19 19 20 18 19 23 22 21 22 38 41 23 36 42 42 28 15 5 358 334 321 317 311 307 308 309 311